User: anonymous   Login
Location: Unspecified
(0.0000°N, 0.0000°E)
Time: 22:37:41
(UTC+00:00)
Language:

OBJECT A - Orbit

View from above orbital plane
View from above orbital plane
View from above satellite
View from above satellite

Ground track
Ground track

The orbit data is extracted from the following two-line orbital elements,

1 43690U 18088A   18343.84008621  .00001249  00000-0  57192-4 0  9999
2 43690  85.0395  84.1115 0015422 179.0938 181.0333 15.19281048  4366
Epoch (UTC): 09 December 2018 20:09:43
Eccentricity: 0.0015422
inclination: 85.0395°
perigee height: 497 km
apogee height: 518 km
right ascension of ascending node: 84.1115°
argument of perigee: 179.0938°
revolutions per day: 15.19281048
mean anomaly at epoch: 181.0333°
orbit number at epoch: 436

The dashed part of the orbit path shows where the satellite is in the earth's shadow,  

DLR